IU1OPQ-3 Weather Reports


Display with metric or nautical units.
time (UTC)temp
F
wind
direction
speed
MPH
gust
MPH
rain 1hr
in
rain 24hr
in
rain mn
in
humidity
%
barometer
mb
20260507064500 50 306 0.0 4.0 0.00 0.07 0.64 99 1013.1
20260507063000 50 345 0.0 3.0 0.00 0.07 0.64 99 1013.0
20260507061501 50 211 2.0 5.0 0.00 0.07 0.64 99 1013.0
20260507060001 51 282 1.0 5.0 0.00 0.07 0.64 99 1012.7
20260507054500 51 254 0.0 3.0 0.00 0.07 0.64 99 1012.6
20260507053000 51 202 2.0 3.0 0.00 0.07 0.64 99 1012.2
20260507051501 51 174 2.0 3.0 0.00 0.07 0.64 99 1012.1
20260507050000 51 223 1.0 3.0 0.00 0.07 0.64 98 1011.7
20260507044501 50 142 2.0 4.0 0.00 0.07 0.64 98 1011.8
20260507043000 51 192 3.0 4.0 0.00 0.07 0.64 98 1011.7
20260507041500 51 224 2.0 6.0 0.00 0.07 0.64 97 1011.5
20260507040001 51 285 2.0 4.0 0.00 0.07 0.64 97 1011.4
20260507034500 51 204 2.0 8.0 0.00 0.07 0.64 97 1011.5
20260507033000 51 185 3.0 4.0 0.00 0.07 0.64 97 1011.4
20260507031501 51 215 7.0 9.0 0.00 0.07 0.64 96 1011.3
20260507030001 51 188 4.0 9.0 0.00 0.07 0.64 97 1011.2
20260507024501 51 236 2.0 6.0 0.00 0.07 0.64 96 1011.4
20260507023001 51 187 3.0 6.0 0.00 0.07 0.64 96 1011.3
20260507021501 51 182 4.0 7.0 0.00 0.07 0.64 98 1011.4
20260507020000 52 169 5.0 5.0 0.00 0.07 0.64 97 1011.3
20260507014501 52 183 3.0 6.0 0.00 0.07 0.64 96 1011.0
20260507013000 52 170 3.0 3.0 0.01 0.07 0.64 96 1011.0
20260507011500 52 238 3.0 7.0 0.01 0.07 0.64 95 1010.9
20260507010001 52 161 2.0 4.0 0.06 0.07 0.64 95 1010.8
20260507004500 52 96 6.0 7.0 0.07 0.07 0.64 96 1010.8
20260507003000 52 68 5.0 5.0 0.07 0.07 0.63 96 1010.8
20260507001501 52 119 2.0 4.0 0.06 0.06 0.63 97 1010.8
20260507000001 52 177 3.0 7.0 0.00 0.00 0.57 97 1011.1
20260506234501 52 148 1.0 1.0 0.00 0.00 0.57 96 1011.0
20260506233000 52 209 1.0 2.0 0.00 0.00 0.57 96 1010.8
20260506231500 53 213 2.0 4.0 0.00 0.00 0.57 94 1010.6
20260506230000 54 97 2.0 4.0 0.00 0.00 0.57 89 1010.7
20260506224500 53 83 5.0 10.0 0.00 0.00 0.57 90 1010.4
20260506223001 54 103 2.0 8.0 0.00 0.00 0.57 89 1010.5
20260506221501 54 189 3.0 5.0 0.01 0.00 0.57 88 1010.3
20260506220001 54 218 8.0 12.0 0.01 0.13 0.57 89 1010.3
20260506214501 54 315 2.0 3.0 0.00 0.13 0.56 88 1010.1
20260506213001 54 183 4.0 7.0 0.00 0.13 0.56 88 1009.9
20260506211500 54 129 4.0 6.0 0.00 0.13 0.56 89 1009.9
20260506210001 54 153 5.0 6.0 0.00 0.13 0.56 90 1010.1
20260506204500 54 112 5.0 13.0 0.00 0.13 0.56 88 1009.5
20260506203002 54 112 6.0 13.0 0.00 0.13 0.56 86 1009.0
20260506201500 54 86 15.0 17.0 0.00 0.13 0.56 88 1008.8
20260506200001 55 92 8.0 17.0 0.05 0.13 0.56 86 1008.6
20260506194501 54 102 7.0 15.0 0.05 0.13 0.56 87 1008.2
20260506193002 54 61 13.0 13.0 0.05 0.13 0.56 89 1008.3
20260506191500 53 116 4.0 9.0 0.05 0.13 0.56 90 1007.7
20260506190000 56 126 8.0 9.0 0.00 0.08 0.51 81 1007.8
20260506184501 57 168 4.0 12.0 0.00 0.07 0.51 79 1007.4
20260506183000 57 32 4.0 12.0 0.00 0.07 0.51 79 1007.2
20260506181501 58 121 5.0 10.0 0.00 0.07 0.51 80 1006.8
20260506180001 58 129 5.0 14.0 0.00 0.07 0.51 81 1006.6
20260506173000 58 68 6.0 16.0 0.00 0.07 0.51 81 1006.4
20260506171501 58 123 7.0 19.0 0.00 0.07 0.51 80 1006.0
20260506170001 58 100 10.0 18.0 0.00 0.07 0.51 80 1005.9
20260506164501 59 68 9.0 19.0 0.00 0.07 0.51 77 1006.0
20260506163000 60 84 10.0 16.0 0.04 0.07 0.51 73 1005.8
20260506161500 61 91 8.0 16.0 0.04 0.07 0.51 72 1005.9
20260506160001 59 97 6.0 15.0 0.04 0.07 0.51 77 1006.1
20260506154500 60 105 3.0 7.0 0.04 0.07 0.51 78 1006.4
20260506153000 61 188 2.0 5.0 0.00 0.04 0.47 70 1006.6
20260506151500 62 75 6.0 12.0 0.00 0.04 0.47 68 1006.3
20260506150001 63 80 7.0 8.0 0.00 0.04 0.47 67 1006.3
20260506144501 64 76 4.0 12.0 0.00 0.04 0.47 63 1006.1
20260506143000 65 86 9.0 16.0 0.00 0.04 0.47 60 1005.7
20260506141501 65 76 9.0 15.0 0.00 0.04 0.47 61 1005.8
20260506140000 65 104 8.0 16.0 0.00 0.04 0.47 62 1006.3
20260506134500 65 92 10.0 11.0 0.00 0.04 0.47 62 1006.3
20260506133001 65 103 7.0 15.0 0.00 0.04 0.47 63 1006.6
20260506131500 65 108 7.0 8.0 0.00 0.04 0.47 65 1006.5
20260506130001 65 142 5.0 16.0 0.00 0.04 0.47 65 1006.7
20260506124500 65 97 9.0 14.0 0.00 0.04 0.47 65 1006.6
20260506123000 65 69 6.0 12.0 0.00 0.04 0.47 64 1006.6
20260506121500 67 84 8.0 9.0 0.00 0.04 0.47 62 1006.7
20260506120000 66 125 4.0 11.0 0.00 0.04 0.47 62 1006.8
20260506114501 64 107 5.0 7.0 0.00 0.04 0.47 69 1006.8
20260506113001 67 113 3.0 6.0 0.00 0.04 0.47 62 1006.9
20260506111500 65 123 3.0 4.0 0.00 0.04 0.47 64 1007.1
20260506110000 62 104 3.0 11.0 0.00 0.04 0.47 64 1007.2
20260506104500 65 93 6.0 11.0 0.00 0.04 0.47 66 1007.3
20260506103000 63 167 1.0 7.0 0.00 0.04 0.47 71 1007.3
20260506101500 62 108 2.0 9.0 0.00 0.04 0.47 74 1007.5
20260506100000 61 99 4.0 6.0 0.00 0.04 0.47 78 1007.7
20260506094501 58 142 4.0 6.0 0.00 0.04 0.47 80 1007.8
20260506093000 58 121 2.0 3.0 0.00 0.04 0.47 84 1007.8
20260506091500 59 192 2.0 4.0 0.00 0.04 0.47 82 1007.7
20260506090001 54 354 1.0 2.0 0.00 0.04 0.47 93 1007.8
20260506084501 54 185 2.0 4.0 0.00 0.04 0.47 94 1007.8
20260506083000 53 3 0.0 3.0 0.00 0.04 0.47 97 1007.9
20260506081501 53 310 2.0 5.0 0.00 0.04 0.47 96 1008.0
20260506073001 51 228 1.0 2.0 0.00 0.04 0.47 98 1007.8
20260506071500 52 225 2.0 4.0 0.00 0.04 0.47 97 1007.8